[[{"header":{"parameterUnit":"m.s-1","parameterCategory":1,"la1":30.2991,"la2":30.254,"lo1":-89.0895,"lo2":-89.0444,"dy":0.0017,"dx":0.0017,"nx":28,"ny":28,"refTime":"2024-06-21T03:00:00:Z","depth":0,"parameterNumber":2,"parameterNumberName":"U-component_of_WINDS"},"data":[0,0,0,0,0,0,0,0,0,0,0,0,0,0,0,0,0,0,0,0,0,0,0,0,0,0,0,0,0,0,0,0,0,0,0,0,0,0,0,0,0,0,0,0,0,0,0,0,0,0,0,0,0,0,0,0,0,0,-5.5431,-5.5429,0,-5.5291,-5.5289,-5.5288,-5.5049,-5.5045,-5.5041,-5.5036,-5.4899,-5.4899,-5.49,0,0,0,0,0,0,0,0,0,0,0,0,0,-5.5499,-5.5499,-5.5431,-5.5429,-5.5428,-5.5291,-5.5289,-5.5287,-5.505,-5.5045,-5.5039,-5.5034,-5.4899,-5.4899,-5.49,0,0,0,0,0,0,0,0,0,0,0,0,0,-5.5425,-5.5499,-5.5431,-5.5293,-5.5279,-5.5291,-5.5289,-5.5287,-5.5051,-5.5045,-5.5038,-5.5032,-5.4899,-5.4899,-5.49,-5.5038,0,0,-5.4902,-5.4903,0,0,0,0,0,0,0,0,-5.543,-5.5423,-5.5315,-5.5302,-5.5287,-5.518,-5.5262,-5.5204,-5.5053,-5.5138,-5.5036,-5.5028,-5.4998,-5.4991,-5.4979,-5.5032,-5.5026,-5.4902,-5.4903,-5.4903,-5.4903,0,0,0,0,0,0,0,-5.5435,-5.5428,-5.5376,-5.5314,-5.5296,-5.5239,-5.5221,-5.525,-5.5108,-5.513,-5.5112,-5.5099,-5.499,-5.4979,-5.4974,-5.5024,-5.4902,-5.4903,-5.4903,-5.4904,-5.518,-5.5187,0,0,0,0,0,0,-5.546,-5.5434,-5.538,-5.5371,-5.5343,-5.5243,-5.5223,-5.5222,-5.5107,-5.5083,-5.5105,-5.5088,-5.4981,-5.4974,-5.4968,-5.5119,-5.4903,-5.4904,-5.4904,-5.5174,-5.5182,-5.5189,0,0,0,0,0,0,-5.5462,-5.5457,-5.5386,-5.5398,-5.5384,-5.5249,-5.5249,-5.5222,-5.5211,-5.5087,-5.5061,-5.512,-5.4975,-5.4967,-5.5021,-5.5111,-5.4904,-5.4905,-5.5165,-5.5176,-5.5186,-5.5425,0,0,0,0,0,0,-5.5465,-5.546,-5.5509,-5.54,-5.5384,-5.544,-5.5255,-5.5224,-5.5212,-5.519,-5.5094,-5.5072,-5.497,-5.5022,-5.5022,-5.5108,-5.4905,-5.5157,-5.517,-5.5182,-5.5408,-5.5442,-5.5471,0,0,0,0,0,-5.5468,-5.5584,-5.5513,-5.5508,-5.5444,-5.5446,-5.5437,-5.5314,-5.5221,-5.527,-5.519,-5.5075,-5.5103,-5.5029,-5.5028,-5.5116,-5.515,-5.5166,-5.5181,-5.5394,-5.5436,-5.5471,0,0,0,0,0,0,-5.571,-5.5567,-5.5487,-5.5571,-5.5522,-5.5406,-5.5464,-5.5363,-5.5341,-5.5321,-5.5172,-5.5153,-5.5226,-5.5177,-5.5098,-5.5242,-5.5108,-5.5125,-5.5271,-5.5309,-5.534,-5.5348,-5.4906,0,0,0,0,0,-5.5772,-5.5784,-5.566,-5.5747,-5.5726,-5.5601,-5.5597,-5.5507,-5.5451,-5.543,-5.5354,-5.5306,-5.5302,-5.5304,-5.5295,-5.5402,-5.5376,-5.5462,-5.5493,-5.552,-5.5534,-5.5584,-5.5619,-5.524,-5.524,-5.524,0,0,-5.5902,-5.5826,-5.5843,-5.5793,-5.5744,-5.5761,-5.5584,-5.561,-5.5621,-5.5434,-5.5478,-5.5422,-5.5359,-5.5439,-5.5471,-5.54,-5.5634,-5.5539,-5.5561,-5.5561,-5.5604,-5.564,-5.5672,-5.5251,-5.5249,-5.5247,0,0,-5.6146,-5.6091,-5.6154,-5.611,-5.6038,-5.5953,-5.597,-5.5868,-5.5822,-5.5865,-5.5724,-5.5737,-5.5736,-5.5695,-5.5675,-5.5904,-5.5796,-5.5906,-5.6069,-5.6119,-5.6149,-5.6175,-5.6253,-5.6283,-5.5922,-5.5923,-5.5923,0,-5.6317,-5.6334,-5.6201,-5.6234,-5.6216,-5.6047,-5.611,-5.6074,-5.6004,-5.5996,-5.5918,-5.5911,-5.5857,-5.5924,-5.598,-5.5971,-5.5983,-5.5914,-5.6155,-5.618,-5.6202,-5.6275,-5.6305,-5.5936,-5.5934,-5.5933,-5.5932,0,-5.6545,-5.656,-5.6621,-5.6554,-5.6544,-5.6593,-5.6468,-5.6474,-5.6386,-5.6311,-5.6356,-5.6285,-5.6257,-5.6267,-5.6183,-5.6322,-5.628,-5.6182,-5.6043,-5.6253,-5.6319,-5.6346,-5.5955,-5.595,-5.5946,-5.5943,0,0,-5.6934,-5.6794,-5.6818,-5.6784,-5.6693,-5.6703,-5.6745,-5.6715,-5.6722,-5.6681,-5.6711,-5.6714,-5.6621,-5.6598,-5.6508,-5.6554,-5.6736,-5.6448,-5.6444,-5.6501,-5.6881,-5.6953,-5.6987,-5.6666,-5.6671,-5.6674,-5.6885,0,-5.7155,-5.7215,-5.7097,-5.7186,-5.7197,-5.7037,-5.7074,-5.7023,-5.6954,-5.6955,-5.6879,-5.6882,-5.6762,-5.6746,-5.6784,-5.6706,-5.6809,-5.669,-5.6691,-5.6692,-5.6707,-5.7022,-5.7098,-5.73,-5.6911,-5.6915,-5.6918,0,-5.742,-5.7389,-5.7479,-5.738,-5.7381,-5.7415,-5.7377,-5.7381,-5.732,-5.7267,-5.7242,-5.7135,-5.7169,-5.704,-5.7084,-5.7006,-5.7,-5.6962,-5.6967,-5.6959,-5.6815,-5.7019,-5.7362,-5.7391,-5.6958,-5.6955,-5.6952,0,-5.7689,-5.7671,-5.7721,-5.7698,-5.7586,-5.7614,-5.7569,-5.7501,-5.7491,-5.746,-5.7451,-5.7427,-5.7412,-5.7395,-5.7285,-5.7201,-5.7343,-5.7204,-5.7298,-5.7301,-5.7331,-5.733,-5.7674,-5.7336,-5.7336,-5.7335,-5.7334,0,-5.7946,-5.8006,-5.7839,-5.787,-5.7933,-5.7799,-5.7865,-5.7804,-5.7746,-5.7762,-5.7625,-5.7644,-5.7499,-5.7502,-5.7417,-5.7465,-5.7461,-5.7419,-5.7394,-5.7428,-5.7433,-5.7419,-5.7401,-5.7343,-5.7341,-5.734,-5.7338,0,-5.8255,-5.8146,-5.8189,-5.808,-5.8054,-5.8105,-5.8011,-5.8035,-5.7959,-5.7981,-5.7979,-5.7859,-5.7855,-5.7745,-5.7719,-5.7661,-5.7744,-5.7696,-5.7764,-5.7746,-5.7845,-5.7836,-5.8189,-5.8227,-5.787,-5.7873,-5.7876,0,-5.8423,-5.8465,-5.836,-5.836,-5.8321,-5.8324,-5.8312,-5.8183,-5.8176,-5.811,-5.8142,-5.8127,-5.8107,-5.811,-5.8021,-5.8,-5.7948,-5.8073,-5.7944,-5.7976,-5.7945,-5.7942,-5.7944,-5.8099,-5.8104,-5.8108,-5.8111,0,-5.8733,-5.8677,-5.8664,-5.8632,-5.8621,-5.8591,-5.8552,-5.8561,-5.8419,-5.8419,-5.8412,-5.8398,-5.837,-5.8356,-5.8319,-5.8273,-5.8169,-5.8153,-5.8172,-5.8205,-5.8241,-5.8219,-5.7833,-5.8144,-5.8141,-5.8138,-5.8137,-5.8135,-5.8973,-5.9002,-5.8932,-5.8922,-5.8879,-5.8846,-5.8862,-5.8787,-5.8778,-5.8744,-5.867,-5.8675,-5.8613,-5.8551,-5.8515,-5.8518,-5.8454,-5.8484,-5.8491,-5.8499,-5.8517,-5.8245,-5.8511,-5.851,-5.8509,-5.8508,-5.8507,0,-5.9272,-5.9219,-5.9211,-5.916,-5.9152,-5.9054,-5.9006,-5.9006,-5.9012,-5.8962,-5.8945,-5.8938,-5.8924,-5.8834,-5.881,-5.8829,-5.8781,-5.8827,-5.8822,-5.8813,-5.8577,-5.856,-5.8867,-5.8867,-5.8867,-5.8866,-5.8866,-5.8866,-5.9426,-5.9468,-5.9405,-5.9425,-5.9372,-5.9374,-5.9355,-5.9323,-5.9282,-5.9279,-5.9266,-5.9208,-5.9141,-5.9111,-5.9094,-5.9068,-5.9064,-5.9126,-5.9084,-5.8865,-5.883,-5.8797,-5.878,-5.9128,-5.9128,-5.9319,-5.9321,-5.9322]},{"header":{"parameterUnit":"m.s-1","parameterCategory":1,"la1":30.2991,"la2":30.254,"lo1":-89.0895,"lo2":-89.0444,"dy":0.0017,"dx":0.0017,"nx":28,"ny":28,"refTime":"2024-06-21T03:00:00:Z","depth":0,"parameterNumber":3,"parameterNumberName":"V-component_of_WINDS"},"data":[0,0,0,0,0,0,0,0,0,0,0,0,0,0,0,0,0,0,0,0,0,0,0,0,0,0,0,0,0,0,0,0,0,0,0,0,0,0,0,0,0,0,0,0,0,0,0,0,0,0,0,0,0,0,0,0,0,0,1.1526,1.1524,0,1.1397,1.1395,1.1394,1.1317,1.1316,1.1316,1.1316,1.1173,1.117,1.1166,0,0,0,0,0,0,0,0,0,0,0,0,0,1.1696,1.1694,1.1526,1.1524,1.1522,1.1397,1.1395,1.1393,1.1317,1.1316,1.1316,1.1316,1.1174,1.117,1.1166,0,0,0,0,0,0,0,0,0,0,0,0,0,1.16,1.1693,1.1526,1.1469,1.1463,1.1397,1.1395,1.1393,1.1317,1.1316,1.1316,1.1315,1.1176,1.1171,1.1166,1.1143,0,0,1.115,1.1147,0,0,0,0,0,0,0,0,1.1606,1.1594,1.1479,1.1473,1.1466,1.1373,1.1403,1.1309,1.1317,1.1372,1.1316,1.1315,1.1239,1.1229,1.1205,1.1136,1.113,1.1149,1.1146,1.1144,1.1142,0,0,0,0,0,0,0,1.1613,1.1599,1.1474,1.1478,1.147,1.1447,1.1433,1.1385,1.131,1.1367,1.1361,1.1348,1.1235,1.1211,1.1201,1.1128,1.1149,1.1145,1.1141,1.1139,1.1034,1.1034,0,0,0,0,0,0,1.163,1.1605,1.1478,1.147,1.1537,1.1445,1.1429,1.1403,1.131,1.1296,1.1348,1.1345,1.122,1.1208,1.1196,1.1164,1.1144,1.1139,1.1136,1.1034,1.1034,1.1035,0,0,0,0,0,0,1.1634,1.1619,1.1484,1.1536,1.1517,1.1443,1.1414,1.1401,1.1376,1.1296,1.1281,1.1337,1.1219,1.1204,1.1158,1.1158,1.1136,1.1132,1.1033,1.1034,1.1034,1.1099,0,0,0,0,0,0,1.1639,1.1621,1.1614,1.1537,1.1515,1.145,1.1414,1.1398,1.1368,1.1362,1.1282,1.1268,1.1217,1.1166,1.1152,1.115,1.1128,1.1033,1.1034,1.1034,1.1096,1.1102,1.1106,0,0,0,0,0,1.1645,1.1634,1.1614,1.1599,1.1505,1.145,1.1437,1.1383,1.1369,1.1359,1.1308,1.127,1.1161,1.1162,1.1146,1.1142,1.1033,1.1033,1.1034,1.1094,1.1101,1.1106,0,0,0,0,0,0,1.1709,1.1623,1.1599,1.1564,1.1516,1.1438,1.1424,1.1391,1.1343,1.1339,1.127,1.1252,1.1213,1.1173,1.1176,1.1115,1.1092,1.109,1.1143,1.1149,1.1153,1.1163,1.1123,0,0,0,0,0,1.172,1.1686,1.1611,1.1587,1.1565,1.1499,1.1473,1.1436,1.1381,1.1359,1.1305,1.125,1.1204,1.1174,1.1126,1.1091,1.1071,1.108,1.1085,1.109,1.1088,1.1066,1.1069,1.1037,1.1037,1.1037,0,0,1.1739,1.1689,1.1671,1.1599,1.1557,1.1521,1.1482,1.1445,1.1417,1.1352,1.1307,1.1265,1.12,1.116,1.1139,1.1125,1.1093,1.1091,1.1095,1.109,1.1067,1.107,1.1073,1.1038,1.1038,1.1037,0,0,1.1758,1.1717,1.1693,1.1653,1.1591,1.1548,1.1543,1.147,1.1441,1.1395,1.1347,1.131,1.1231,1.1187,1.1155,1.1159,1.1122,1.1145,1.117,1.1149,1.1152,1.1154,1.1154,1.1156,1.1144,1.1144,1.1144,0,1.1789,1.1736,1.1683,1.165,1.162,1.1564,1.1538,1.15,1.1425,1.1404,1.1391,1.1292,1.1244,1.1192,1.1194,1.1169,1.1159,1.1153,1.1156,1.1158,1.1158,1.1158,1.1159,1.1148,1.1147,1.1147,1.1147,0,1.1778,1.1742,1.1729,1.1663,1.1631,1.1601,1.1541,1.1515,1.1481,1.1438,1.1392,1.1333,1.1273,1.1258,1.1223,1.1202,1.1195,1.117,1.1145,1.1166,1.1164,1.1164,1.1152,1.1151,1.115,1.1149,0,0,1.183,1.1738,1.1734,1.1704,1.1633,1.1602,1.157,1.1515,1.1494,1.1444,1.1413,1.135,1.1327,1.129,1.1249,1.1231,1.1238,1.1207,1.1205,1.1215,1.1211,1.123,1.1231,1.1214,1.1214,1.1214,1.1216,0,1.1838,1.1781,1.1733,1.1692,1.1657,1.1606,1.1577,1.1529,1.1489,1.1452,1.1405,1.1362,1.1335,1.1312,1.1293,1.1242,1.1236,1.1241,1.1182,1.1181,1.12,1.123,1.1249,1.1254,1.1215,1.1215,1.1215,0,1.1838,1.1796,1.1753,1.1687,1.1671,1.1647,1.1593,1.1559,1.1503,1.1475,1.1436,1.1394,1.1355,1.1336,1.128,1.1284,1.1257,1.1229,1.1228,1.1219,1.1199,1.1221,1.1254,1.1255,1.1214,1.1214,1.1214,0,1.1881,1.1812,1.1777,1.1753,1.1676,1.166,1.1626,1.1571,1.1541,1.1494,1.1474,1.1421,1.1391,1.135,1.1295,1.1286,1.1244,1.122,1.1218,1.1219,1.1209,1.1211,1.1238,1.1195,1.1195,1.1195,1.1195,0,1.1893,1.1869,1.1796,1.1774,1.1745,1.169,1.1661,1.1622,1.1574,1.1542,1.1493,1.1463,1.1393,1.1354,1.131,1.127,1.1257,1.1232,1.122,1.1235,1.1239,1.1216,1.1214,1.1195,1.1195,1.1195,1.1195,0,1.1934,1.1885,1.1844,1.1776,1.1758,1.174,1.168,1.1656,1.1614,1.1575,1.1562,1.1496,1.1448,1.139,1.1322,1.1292,1.1256,1.1239,1.1276,1.1269,1.127,1.1271,1.1283,1.1281,1.124,1.1241,1.1241,0,1.1945,1.1926,1.1857,1.1835,1.1804,1.1768,1.1739,1.1683,1.1654,1.1591,1.1574,1.1524,1.148,1.1406,1.1349,1.1297,1.1278,1.1286,1.1269,1.1286,1.1277,1.1279,1.1276,1.129,1.129,1.1291,1.1292,0,1.197,1.1947,1.1909,1.1864,1.1832,1.1791,1.1749,1.1732,1.1667,1.1637,1.159,1.1557,1.149,1.144,1.1382,1.1343,1.1306,1.1298,1.1294,1.1309,1.1332,1.1319,1.1287,1.1297,1.1297,1.1296,1.1296,1.1296,1.1995,1.1976,1.1926,1.1885,1.1849,1.1811,1.1786,1.1743,1.1704,1.1648,1.1617,1.1571,1.1515,1.1433,1.1397,1.1358,1.1344,1.1339,1.1337,1.1337,1.1342,1.134,1.1346,1.1346,1.1346,1.1346,1.1346,0,1.2017,1.1983,1.1947,1.1891,1.1859,1.1832,1.1784,1.1758,1.1719,1.1672,1.1632,1.1578,1.153,1.1471,1.1418,1.1398,1.1379,1.1386,1.1386,1.1377,1.1357,1.1365,1.1402,1.1402,1.1402,1.1402,1.1402,1.1402,1.2024,1.1991,1.1962,1.191,1.1874,1.1832,1.1807,1.1771,1.1734,1.1677,1.1638,1.1602,1.155,1.1493,1.1447,1.143,1.1412,1.1424,1.1402,1.1384,1.1379,1.1374,1.1381,1.1421,1.1421,1.1426,1.1426,1.1426]}]]